Estación Meteorológica Peña el Pijo (Robertgarden) [ 07/11/20 22:18:14 CEST ]

Fecha Hora Presion(HPa) Temp (°C) Humedad % Rocio (°C) Viento ( m/s) Direccion Lluvia 1Hora(mm) Lluvia 24H(mm) LLuvia Total(mm)
2020-May-24 01:09:04 1017.500 - - - - W     39.88
2020-May-24 02:08:53 1017.500 - - - - W     39.88
2020-May-24 03:09:06 1017.400 - - - - W     39.88
2020-May-24 04:09:16 1017.000 - - - - W     39.88
2020-May-24 05:09:20 1017.200 - - - - W     39.88
2020-May-24 06:09:10 1017.200 - - - - W     39.88
2020-May-24 07:10:27 1018.000 - - - - W     39.88
2020-May-24 08:10:52 1018.200 - - - - W     39.88
2020-May-24 09:09:25 1018.400 - - - - W     39.88
2020-May-24 10:09:35 1018.400 - - - - W     39.88
2020-May-24 11:09:07 1018.000 - - - - W     39.88
2020-May-24 12:08:54 1017.800 - - - - W     39.88
2020-May-24 13:09:16 1017.600 - - - - W     39.88
2020-May-24 14:08:51 1017.300 - - - - W     39.88
2020-May-24 15:09:09 1017.000 - - - - W     39.88
2020-May-24 16:09:14 1016.700 - - - - W     39.88
2020-May-24 17:09:41 1016.300 - - - - W     39.88
2020-May-24 18:09:12 1016.000 - - - - W     39.88
2020-May-24 19:09:20 1015.900 - - - - W     39.88
2020-May-24 20:09:09 1016.200 - - - - W     39.88
2020-May-24 21:08:59 1016.500 - - - - W     39.88
2020-May-24 22:08:49 1016.900 - - - - W     39.88
2020-May-24 23:08:43 1017.500 - - - - W     39.88

Temperatura Máxima:    Temperatura Mínima:
Presión Máxima:1018.400 Hpa    Presión Mínima:1015.900 Hpa


Volver